EW0616 Weather Reports


time (UTC)temp
C
wind
direction
speed
KPH
gust
KPH
rain 1hr
cm
rain 24hr
cm
rain mn
cm
humidity
%
barometer
mb
20260506134510 23 157 0.0 0.0 0.00 0.00 0.00 84 1012.8
20260506133511 23 156 0.0 3.2 0.00 0.00 0.00 84 1013.1
20260506132510 23 135 0.0 0.0 0.00 0.00 0.00 84 1012.8
20260506131511 23 154 0.0 4.8 0.00 0.00 0.00 85 1012.9
20260506130511 23 202 0.0 0.0 0.00 0.00 0.00 85 1012.8
20260506125510 23 157 0.0 0.0 0.00 0.00 0.00 85 1012.7
20260506124511 23 97 0.0 0.0 0.00 0.00 0.00 85 1012.5
20260506123511 22 157 0.0 0.0 0.00 0.00 0.00 85 1012.6
20260506122511 23 157 0.0 0.0 0.00 0.00 0.00 85 1012.6
20260506120625 23 157 0.0 0.0 0.00 0.00 0.00 84 1012.7
20260506115610 23 157 0.0 0.0 0.00 0.00 0.00 84 1012.5
20260506114610 23 157 0.0 0.0 0.00 0.00 0.00 84 1012.4
20260506113708 23 157 0.0 0.0 0.00 0.00 0.00 84 1012.5
20260506112709 23 161 0.0 0.0 0.00 0.00 0.00 84 1012.5
20260506111710 23 135 0.0 0.0 0.00 0.00 0.00 84 1012.5
20260506110709 23 135 0.0 0.0 0.00 0.00 0.00 84 1012.4
20260506105730 23 135 0.0 0.0 0.00 0.00 0.00 84 1012.4
20260506104828 23 135 0.0 0.0 0.00 0.00 0.00 84 1012.2
20260506101930 23 162 1.6 6.4 0.00 0.00 0.00 84 1011.8
20260506100930 23 168 1.6 6.4 0.00 0.00 0.00 84 1011.8
20260506095931 23 168 4.8 8.0 0.00 0.00 0.00 84 1011.8
20260506095029 23 174 3.2 6.4 0.00 0.00 0.00 84 1011.6
20260506094031 23 159 1.6 4.8 0.00 0.00 0.00 84 1011.6
20260506093129 23 175 3.2 6.4 0.00 0.00 0.00 84 1011.4
20260506092131 23 162 3.2 8.0 0.00 0.00 0.00 84 1011.5
20260506091228 23 175 6.4 9.7 0.00 0.00 0.00 84 1011.3
20260506085328 23 165 4.8 6.4 0.00 0.00 0.00 84 1011.2
20260506084328 23 151 4.8 6.4 0.00 0.00 0.00 84 1011.2
20260506083330 23 168 6.4 11.3 0.00 0.00 0.00 84 1011.2
20260506081329 23 169 3.2 8.0 0.00 0.00 0.00 84 1011.3
20260506080330 23 172 3.2 6.4 0.00 0.00 0.00 84 1011.3
20260506073428 23 152 4.8 9.7 0.00 0.00 0.00 84 1011.7
20260506072428 23 159 1.6 6.4 0.00 0.00 0.00 84 1011.7
20260506071528 23 155 6.4 11.3 0.00 0.00 0.00 83 1011.9
20260506061545 23 177 6.4 12.9 0.00 0.00 0.00 83 1011.9
20260506060631 23 167 4.8 11.3 0.00 0.00 0.00 83 1011.8
20260506050830 23 143 3.2 4.8 0.00 0.00 0.00 82 1012.0
20260506045023 24 149 9.7 16.1 0.00 0.00 0.00 82 1011.9
20260506044025 24 149 6.4 14.5 0.00 0.00 0.00 82 1012.0
20260506043123 24 150 6.4 14.5 0.00 0.00 0.00 82 1012.0
20260506042124 24 155 6.4 12.9 0.00 0.00 0.00 82 1011.8
20260506041125 24 148 3.2 8.0 0.00 0.00 0.00 82 1011.8
20260506040125 24 146 3.2 8.0 0.00 0.00 0.00 82 1011.7
20260506035124 24 157 4.8 9.7 0.00 0.00 0.00 82 1011.4
20260506034224 24 149 4.8 11.3 0.00 0.00 0.00 82 1011.5
20260506032225 24 135 1.6 4.8 0.00 0.00 0.00 82 1011.2
20260506031224 24 159 3.2 4.8 0.00 0.00 0.00 82 1011.1
20260506030241 24 157 0.0 3.2 0.00 0.00 0.00 82 1010.8
20260506024224 24 136 1.6 6.4 0.00 0.00 0.00 81 1010.7
20260506023240 24 169 0.0 3.2 0.00 0.00 0.00 81 1010.6
20260506022225 24 149 3.2 8.0 0.00 0.00 0.00 81 1010.3
20260506020326 24 135 0.0 3.2 0.00 0.00 0.00 80 1010.0
20260506015424 24 157 0.0 1.6 0.00 0.00 0.00 80 1009.9
20260506014424 25 135 0.0 0.0 0.00 0.00 0.00 79 1009.8
20260506013523 25 135 0.0 0.0 0.00 0.00 0.00 79 1009.8
20260506012526 25 135 0.0 0.0 0.00 0.00 0.00 77 1009.7
20260506011526 26 135 0.0 0.0 0.00 0.00 0.00 77 1009.8
20260506010624 26 135 0.0 0.0 0.00 0.00 0.00 76 1009.8
20260506005625 26 135 0.0 0.0 0.00 0.00 0.00 76 1009.8
20260506004641 26 141 0.0 1.6 0.00 0.00 0.00 75 1009.8
20260506003725 27 158 1.6 3.2 0.00 0.00 0.00 74 1009.6
20260506002743 27 157 0.0 3.2 0.00 0.00 0.00 74 1009.6
20260506001824 27 154 0.0 3.2 0.00 0.00 0.00 73 1009.5
20260505234924 27 160 1.6 6.4 0.00 0.00 0.00 72 1009.1
20260505233925 27 137 0.0 4.8 0.00 0.00 0.00 72 1009.2
20260505232925 27 167 3.2 8.0 0.00 0.00 0.00 71 1009.2
20260505231925 27 147 4.8 11.3 0.00 0.00 0.00 70 1009.3
20260505230925 27 173 3.2 6.4 0.00 0.00 0.00 71 1009.3
20260505225922 27 160 6.4 11.3 0.00 0.00 0.00 71 1009.1
20260505225022 27 151 8.0 16.1 0.00 0.00 0.00 71 1009.1
20260505223025 27 178 4.8 11.3 0.00 0.00 0.00 69 1008.9
20260505222025 28 148 8.0 17.7 0.00 0.00 0.00 70 1009.1
20260505220124 28 153 6.4 9.7 0.00 0.00 0.00 69 1009.2
20260505215126 28 182 8.0 12.9 0.00 0.00 0.00 68 1009.3
20260505214124 28 165 9.7 16.1 0.00 0.00 0.00 68 1009.6
20260505213123 28 158 8.0 16.1 0.00 0.00 0.00 68 1009.6
20260505212223 28 154 9.7 17.7 0.00 0.00 0.00 67 1009.6
20260505211224 28 197 9.7 17.7 0.00 0.00 0.00 68 1009.7
20260505210324 28 156 6.4 14.5 0.00 0.00 0.00 68 1009.8
20260505205423 28 154 8.0 14.5 0.00 0.00 0.00 68 1010.1
20260505202523 27 140 9.7 14.5 0.00 0.00 0.00 69 1010.6
20260505201523 27 155 6.4 12.9 0.00 0.00 0.00 71 1010.8
20260505195524 27 142 6.4 12.9 0.00 0.00 0.00 71 1010.7
20260505194622 27 161 6.4 11.3 0.00 0.00 0.00 70 1011.0
20260505193626 27 185 6.4 11.3 0.00 0.00 0.00 70 1011.2
20260505192723 27 172 9.7 16.1 0.00 0.00 0.00 71 1010.9
20260505191726 27 149 8.0 14.5 0.00 0.00 0.00 71 1011.2
20260505190823 27 149 8.0 12.9 0.00 0.00 0.00 72 1011.1
20260505185824 26 164 8.0 14.5 0.00 0.00 0.00 73 1011.3
20260505184822 26 202 1.6 9.7 0.00 0.00 0.00 73 1011.5
20260505182922 26 215 3.2 8.0 0.00 0.00 0.00 75 1011.6
20260505181925 25 197 6.4 11.3 0.00 0.00 0.00 75 1011.8
20260505181023 25 168 4.8 9.7 0.00 0.00 0.00 76 1011.8
20260505180023 25 185 1.6 8.0 0.00 0.00 0.00 77 1012.0
20260505175123 25 181 4.8 11.3 0.00 0.00 0.00 78 1012.1
20260505174124 24 194 6.4 17.7 0.00 0.00 0.00 79 1012.2
20260505173125 23 198 8.0 14.5 0.00 0.00 0.00 80 1012.4
20260505172124 23 189 1.6 8.0 0.00 0.00 0.00 80 1012.6
20260505171123 23 205 4.8 12.9 0.00 0.00 0.00 81 1012.5
20260505170123 23 187 3.2 8.0 0.00 0.00 0.00 81 1012.5
20260505165124 23 194 6.4 11.3 0.00 0.00 0.00 81 1012.4
20260505163240 22 207 6.4 12.9 0.00 0.00 0.00 81 1012.4
20260505162322 22 194 4.8 8.0 0.00 0.00 0.00 82 1012.4
20260505161325 22 194 4.8 9.7 0.00 0.00 0.00 82 1012.5
20260505160325 22 196 6.4 11.3 0.00 0.00 0.00 83 1012.5
20260505152424 21 174 4.8 11.3 0.00 0.00 0.00 84 1012.5
20260505150523 21 198 4.8 9.7 0.00 0.00 0.00 84 1012.4